Location: Los Ranchitos
(37.9930°N, 122.5425°W)
Time: 02:51:00
(UTC+00:00)

ATLAS 3B R/B - Visible Passes

Search period start: 16 January 2021 00:00
Search period end: 26 January 2021 00:00
Orbit: 1013 x 1182 km, 63.8° (Epoch: 08 January)

Date Brightness Start Highest point End Pass type
(mag) Time Alt. Az. Time Alt. Az. Time Alt. Az.
16 Jan 2.8 02:15:33 10° NNW 02:22:32 65° NE 02:29:45 10° SE visible
16 Jan 4.8 04:07:15 10° WNW 04:12:44 24° WSW 04:18:19 10° SSW visible
17 Jan 4.0 03:19:14 10° NW 03:25:46 41° WSW 03:32:30 10° S visible
18 Jan 3.1 02:31:40 10° NW 02:38:40 69° WSW 02:45:55 10° SSE visible
18 Jan 5.7 04:27:27 10° W 04:28:15 10° WSW 04:29:01 10° WSW visible
19 Jan 2.8 01:44:23 10° NNW 01:51:25 75° ENE 01:58:43 10° SE visible
19 Jan 5.2 03:36:33 10° WNW 03:41:28 20° WSW 03:46:30 10° SSW visible
20 Jan 4.4 02:48:16 10° NW 02:54:33 35° WSW 03:01:01 10° S visible
20 Jan 5.9 14:50:18 10° SE 14:53:15 13° ESE 14:56:14 10° ENE visible
21 Jan 3.5 02:00:35 10° NW 02:07:29 59° WSW 02:14:38 10° SSE visible
22 Jan 5.7 03:05:58 10° WNW 03:10:12 17° WSW 03:14:29 10° SW visible
23 Jan 4.9 02:17:22 10° NW 02:23:19 30° WSW 02:29:27 10° SSW visible
23 Jan 5.7 14:18:02 10° SE 14:21:58 17° ESE 14:25:54 10° ENE visible
25 Jan 6.0 02:35:40 10° WNW 02:38:55 14° WSW 02:42:11 10° SW visible
25 Jan 4.4 14:31:41 10° S 14:37:34 37° ESE 14:43:31 10° NE visible
